Location: Broletto
(44.6000°N, 10.5833°E)
Time: 06:02:37
(UTC+00:00)

ATLAS 3B R/B - Pass Details

Date: 18 April 2021
Orbit: 1006 x 1189 km, 63.8° (Epoch: 21 April)

Event Time Altitude Azimuth Distance (km) Brightness Sun altitude
Rises 20:40:54 0° 318° (NW) 3,906 7.1 -24.0°
Reaches altitude 10° 20:43:40 10° 311° (NW) 2,972 6.1 -24.4°
Maximum altitude 20:50:11 41° 245° (WSW) 1,603 3.7 -25.1°
Enters shadow 20:53:12 28° 199° (SSW) 1,999 3.8 -25.5°
